owner,sensor,date,latitude,longitude,vertical_datum,mass_concentration_of_oxygen_in_sea_water,qcFlag 
DISL,ioos:station:DISL:CATA:1,2014-12-01T00:00:00Z,30.3085,-88.1395,2.331,12.66,1111122 
DISL,ioos:station:DISL:CATA:1,2014-12-01T00:30:00Z,30.3085,-88.1395,2.354,12.54,1111122 
DISL,ioos:station:DISL:CATA:1,2014-12-01T01:00:00Z,30.3085,-88.1395,2.372,12.26,1111122 
DISL,ioos:station:DISL:CATA:1,2014-12-01T01:30:00Z,30.3085,-88.1395,2.374,12.26,1111122 
DISL,ioos:station:DISL:CATA:1,2014-12-01T02:00:00Z,30.3085,-88.1395,2.388,12.24,1111122 
DISL,ioos:station:DISL:CATA:1,2014-12-01T02:30:00Z,30.3085,-88.1395,2.389,11.87,1111122 
DISL,ioos:station:DISL:CATA:1,2014-12-01T03:00:00Z,30.3085,-88.1395,2.388,11.59,1111122 
DISL,ioos:station:DISL:CATA:1,2014-12-01T03:30:00Z,30.3085,-88.1395,2.378,12.17,1111122 
DISL,ioos:station:DISL:CATA:1,2014-12-01T04:00:00Z,30.3085,-88.1395,2.355,13.06,1111122 
DISL,ioos:station:DISL:CATA:1,2014-12-01T04:30:00Z,30.3085,-88.1395,2.331,13.85,1111122 
DISL,ioos:station:DISL:CATA:1,2014-12-01T05:00:00Z,30.3085,-88.1395,2.303,13.83,1111122 
DISL,ioos:station:DISL:CATA:1,2014-12-01T05:30:00Z,30.3085,-88.1395,2.28,12.81,1111122 
DISL,ioos:station:DISL:CATA:1,2014-12-01T06:00:00Z,30.3085,-88.1395,2.265,11.92,1111122 
DISL,ioos:station:DISL:CATA:1,2014-12-01T06:30:00Z,30.3085,-88.1395,2.238,11.89,1111122 
DISL,ioos:station:DISL:CATA:1,2014-12-01T07:00:00Z,30.3085,-88.1395,2.229,11.87,1111122 
DISL,ioos:station:DISL:CATA:1,2014-12-01T07:30:00Z,30.3085,-88.1395,2.211,11.67,1111122 
DISL,ioos:station:DISL:CATA:1,2014-12-01T08:00:00Z,30.3085,-88.1395,2.202,11.6,1111122 
DISL,ioos:station:DISL:CATA:1,2014-12-01T08:30:00Z,30.3085,-88.1395,2.197,11.67,1111122 
DISL,ioos:station:DISL:CATA:1,2014-12-01T09:00:00Z,30.3085,-88.1395,2.192,11.44,1111122 
DISL,ioos:station:DISL:CATA:1,2014-12-01T09:30:00Z,30.3085,-88.1395,2.194,11.3,1111122 
DISL,ioos:station:DISL:CATA:1,2014-12-01T10:00:00Z,30.3085,-88.1395,2.18,11.5,1111122 
DISL,ioos:station:DISL:CATA:1,2014-12-01T10:30:00Z,30.3085,-88.1395,2.169,11.75,1111122 
DISL,ioos:station:DISL:CATA:1,2014-12-01T11:00:00Z,30.3085,-88.1395,2.156,11.8,1111122 
DISL,ioos:station:DISL:CATA:1,2014-12-01T11:30:00Z,30.3085,-88.1395,2.146,11.74,1111122 
DISL,ioos:station:DISL:CATA:1,2014-12-01T12:00:00Z,30.3085,-88.1395,2.14,11.89,1111122 
DISL,ioos:station:DISL:CATA:1,2014-12-01T12:30:00Z,30.3085,-88.1395,2.145,11.84,1111122 
DISL,ioos:station:DISL:CATA:1,2014-12-01T13:00:00Z,30.3085,-88.1395,2.152,11.71,1111122 
DISL,ioos:station:DISL:CATA:1,2014-12-01T13:30:00Z,30.3085,-88.1395,2.169,11.66,1111122 
DISL,ioos:station:DISL:CATA:1,2014-12-01T14:00:00Z,30.3085,-88.1395,2.174,11.61,1111122 
DISL,ioos:station:DISL:CATA:1,2014-12-01T14:30:00Z,30.3085,-88.1395,2.173,11.66,1111122 
DISL,ioos:station:DISL:CATA:1,2014-12-01T15:00:00Z,30.3085,-88.1395,2.178,11.62,1111122 
DISL,ioos:station:DISL:CATA:1,2014-12-01T15:30:00Z,30.3085,-88.1395,2.176,11.69,1111122 
DISL,ioos:station:DISL:CATA:1,2014-12-01T16:00:00Z,30.3085,-88.1395,2.163,11.74,1111122 
DISL,ioos:station:DISL:CATA:1,2014-12-01T16:30:00Z,30.3085,-88.1395,2.151,11.84,1111122 
DISL,ioos:station:DISL:CATA:1,2014-12-01T17:00:00Z,30.3085,-88.1395,2.148,11.92,1111122 
DISL,ioos:station:DISL:CATA:1,2014-12-01T17:30:00Z,30.3085,-88.1395,2.15,12.18,1111122 
DISL,ioos:station:DISL:CATA:1,2014-12-01T18:00:00Z,30.3085,-88.1395,2.16,12.48,1111122 
DISL,ioos:station:DISL:CATA:1,2014-12-01T18:30:00Z,30.3085,-88.1395,2.167,12.59,1111122 
DISL,ioos:station:DISL:CATA:1,2014-12-01T19:00:00Z,30.3085,-88.1395,2.168,12.79,1111122 
DISL,ioos:station:DISL:CATA:1,2014-12-01T19:30:00Z,30.3085,-88.1395,2.18,12.73,1111122 
DISL,ioos:station:DISL:CATA:1,2014-12-01T20:00:00Z,30.3085,-88.1395,2.198,12.66,1111122 
DISL,ioos:station:DISL:CATA:1,2014-12-01T20:30:00Z,30.3085,-88.1395,2.215,12.57,1111122 
DISL,ioos:station:DISL:CATA:1,2014-12-01T21:00:00Z,30.3085,-88.1395,2.23,12.53,1111122 
DISL,ioos:station:DISL:CATA:1,2014-12-01T21:30:00Z,30.3085,-88.1395,2.231,11.7,1111122 
DISL,ioos:station:DISL:CATA:1,2014-12-01T22:00:00Z,30.3085,-88.1395,2.268,11.8,1111122 
DISL,ioos:station:DISL:CATA:1,2014-12-01T22:30:00Z,30.3085,-88.1395,2.274,12.33,1111122 
DISL,ioos:station:DISL:CATA:1,2014-12-01T23:00:00Z,30.3085,-88.1395,2.285,12.69,1111122 
DISL,ioos:station:DISL:CATA:1,2014-12-01T23:30:00Z,30.3085,-88.1395,2.297,12.42,1111122 
DISL,ioos:station:DISL:CATA:1,2014-12-02T00:00:00Z,30.3085,-88.1395,2.304,12.69,1111122 
DISL,ioos:station:DISL:CATA:1,2014-12-02T00:30:00Z,30.3085,-88.1395,2.314,13.01,1111122 
DISL,ioos:station:DISL:CATA:1,2014-12-02T01:00:00Z,30.3085,-88.1395,2.318,13.53,1111122 
DISL,ioos:station:DISL:CATA:1,2014-12-02T01:30:00Z,30.3085,-88.1395,2.335,13.7,1111122 
DISL,ioos:station:DISL:CATA:1,2014-12-02T02:00:00Z,30.3085,-88.1395,2.35,13.64,1111122 
DISL,ioos:station:DISL:CATA:1,2014-12-02T02:30:00Z,30.3085,-88.1395,2.357,13.16,1111122 
DISL,ioos:station:DISL:CATA:1,2014-12-02T03:00:00Z,30.3085,-88.1395,2.352,12.95,1111122 
DISL,ioos:station:DISL:CATA:1,2014-12-02T03:30:00Z,30.3085,-88.1395,2.34,12.53,1111122 
DISL,ioos:station:DISL:CATA:1,2014-12-02T04:00:00Z,30.3085,-88.1395,2.324,12.22,1111122 
DISL,ioos:station:DISL:CATA:1,2014-12-02T04:30:00Z,30.3085,-88.1395,2.321,11.81,1111122 
DISL,ioos:station:DISL:CATA:1,2014-12-02T05:00:00Z,30.3085,-88.1395,2.292,11.87,1111122 
DISL,ioos:station:DISL:CATA:1,2014-12-02T05:30:00Z,30.3085,-88.1395,2.262,11.58,1111122 
DISL,ioos:station:DISL:CATA:1,2014-12-02T06:00:00Z,30.3085,-88.1395,2.234,11.64,1111122 
DISL,ioos:station:DISL:CATA:1,2014-12-02T06:30:00Z,30.3085,-88.1395,2.21,11.73,1111122 
DISL,ioos:station:DISL:CATA:1,2014-12-02T07:00:00Z,30.3085,-88.1395,2.196,11.62,1111122 
DISL,ioos:station:DISL:CATA:1,2014-12-02T07:30:00Z,30.3085,-88.1395,2.175,11.52,1111122 
DISL,ioos:station:DISL:CATA:1,2014-12-02T08:00:00Z,30.3085,-88.1395,2.16,11.55,1111122 
DISL,ioos:station:DISL:CATA:1,2014-12-02T08:30:00Z,30.3085,-88.1395,2.159,11.62,1111122 
DISL,ioos:station:DISL:CATA:1,2014-12-02T09:00:00Z,30.3085,-88.1395,2.147,11.54,1111122 
DISL,ioos:station:DISL:CATA:1,2014-12-02T09:30:00Z,30.3085,-88.1395,2.142,11.5,1111122 
DISL,ioos:station:DISL:CATA:1,2014-12-02T10:00:00Z,30.3085,-88.1395,2.14,11.81,1111122 
DISL,ioos:station:DISL:CATA:1,2014-12-02T10:30:00Z,30.3085,-88.1395,2.149,11.99,1111122 
DISL,ioos:station:DISL:CATA:1,2014-12-02T11:00:00Z,30.3085,-88.1395,2.166,12.06,1111122 
DISL,ioos:station:DISL:CATA:1,2014-12-02T11:30:00Z,30.3085,-88.1395,2.161,12.03,1111122 
DISL,ioos:station:DISL:CATA:1,2014-12-02T12:00:00Z,30.3085,-88.1395,2.136,11.31,1111122 
DISL,ioos:station:DISL:CATA:1,2014-12-02T12:30:00Z,30.3085,-88.1395,2.127,10.77,1111122 
DISL,ioos:station:DISL:CATA:1,2014-12-02T13:00:00Z,30.3085,-88.1395,2.141,10.55,1111122 
DISL,ioos:station:DISL:CATA:1,2014-12-02T13:30:00Z,30.3085,-88.1395,2.179,11.23,1111122 
DISL,ioos:station:DISL:CATA:1,2014-12-02T14:00:00Z,30.3085,-88.1395,2.188,11.0,1111122 
DISL,ioos:station:DISL:CATA:1,2014-12-02T14:30:00Z,30.3085,-88.1395,2.208,11.09,1111122 
DISL,ioos:station:DISL:CATA:1,2014-12-02T15:00:00Z,30.3085,-88.1395,2.228,11.32,1111122 
DISL,ioos:station:DISL:CATA:1,2014-12-02T15:30:00Z,30.3085,-88.1395,2.242,11.37,1111122 
DISL,ioos:station:DISL:CATA:1,2014-12-02T16:00:00Z,30.3085,-88.1395,2.247,11.53,1111122 
DISL,ioos:station:DISL:CATA:1,2014-12-02T16:30:00Z,30.3085,-88.1395,2.253,11.68,1111122 
DISL,ioos:station:DISL:CATA:1,2014-12-02T17:00:00Z,30.3085,-88.1395,2.256,11.43,1111122 
DISL,ioos:station:DISL:CATA:1,2014-12-02T17:30:00Z,30.3085,-88.1395,2.256,11.09,1111122 
DISL,ioos:station:DISL:CATA:1,2014-12-02T18:00:00Z,30.3085,-88.1395,2.257,10.94,1111122 
DISL,ioos:station:DISL:CATA:1,2014-12-02T18:30:00Z,30.3085,-88.1395,2.272,11.25,1111122 
DISL,ioos:station:DISL:CATA:1,2014-12-02T19:00:00Z,30.3085,-88.1395,2.29,10.85,1111122 
DISL,ioos:station:DISL:CATA:1,2014-12-02T19:30:00Z,30.3085,-88.1395,2.313,10.83,1111122 
DISL,ioos:station:DISL:CATA:1,2014-12-02T20:00:00Z,30.3085,-88.1395,2.335,10.76,1111122 
DISL,ioos:station:DISL:CATA:1,2014-12-02T20:30:00Z,30.3085,-88.1395,2.37,11.15,1111122 
DISL,ioos:station:DISL:CATA:1,2014-12-02T21:00:00Z,30.3085,-88.1395,2.385,11.78,1111122 
DISL,ioos:station:DISL:CATA:1,2014-12-02T21:30:00Z,30.3085,-88.1395,2.391,11.82,1111122 
DISL,ioos:station:DISL:CATA:1,2014-12-02T22:00:00Z,30.3085,-88.1395,2.413,11.53,1111122 
DISL,ioos:station:DISL:CATA:1,2014-12-02T22:30:00Z,30.3085,-88.1395,2.432,11.5,1111122 
DISL,ioos:station:DISL:CATA:1,2014-12-02T23:00:00Z,30.3085,-88.1395,2.447,11.61,1111122 
DISL,ioos:station:DISL:CATA:1,2014-12-02T23:30:00Z,30.3085,-88.1395,2.454,11.43,1111122 
DISL,ioos:station:DISL:CATA:1,2014-12-03T00:00:00Z,30.3085,-88.1395,2.471,11.43,1111122 
DISL,ioos:station:DISL:CATA:1,2014-12-03T00:30:00Z,30.3085,-88.1395,2.48,11.43,1111122 
DISL,ioos:station:DISL:CATA:1,2014-12-03T01:00:00Z,30.3085,-88.1395,2.48,11.24,1111122 
DISL,ioos:station:DISL:CATA:1,2014-12-03T01:30:00Z,30.3085,-88.1395,2.487,11.05,1111122 
DISL,ioos:station:DISL:CATA:1,2014-12-03T02:00:00Z,30.3085,-88.1395,2.488,10.66,1111122 
DISL,ioos:station:DISL:CATA:1,2014-12-03T02:30:00Z,30.3085,-88.1395,2.488,10.56,1111122 
DISL,ioos:station:DISL:CATA:1,2014-12-03T03:00:00Z,30.3085,-88.1395,2.493,10.55,1111122 
DISL,ioos:station:DISL:CATA:1,2014-12-03T03:30:00Z,30.3085,-88.1395,2.475,10.24,1111122 
DISL,ioos:station:DISL:CATA:1,2014-12-03T04:00:00Z,30.3085,-88.1395,2.463,10.27,1111122 
DISL,ioos:station:DISL:CATA:1,2014-12-03T04:30:00Z,30.3085,-88.1395,2.431,9.93,1111122 
DISL,ioos:station:DISL:CATA:1,2014-12-03T05:00:00Z,30.3085,-88.1395,2.395,9.62,1111122 
DISL,ioos:station:DISL:CATA:1,2014-12-03T05:30:00Z,30.3085,-88.1395,2.357,9.23,1111122 
DISL,ioos:station:DISL:CATA:1,2014-12-03T06:00:00Z,30.3085,-88.1395,2.316,9.9,1111122 
DISL,ioos:station:DISL:CATA:1,2014-12-03T06:30:00Z,30.3085,-88.1395,2.269,10.48,1111122 
DISL,ioos:station:DISL:CATA:1,2014-12-03T07:00:00Z,30.3085,-88.1395,2.232,11.55,1111122 
DISL,ioos:station:DISL:CATA:1,2014-12-03T07:30:00Z,30.3085,-88.1395,2.189,11.65,1111122 
DISL,ioos:station:DISL:CATA:1,2014-12-03T08:00:00Z,30.3085,-88.1395,2.166,11.63,1111122 
DISL,ioos:station:DISL:CATA:1,2014-12-03T08:30:00Z,30.3085,-88.1395,2.131,11.96,1111122 
DISL,ioos:station:DISL:CATA:1,2014-12-03T09:00:00Z,30.3085,-88.1395,2.105,12.29,1111122 
DISL,ioos:station:DISL:CATA:1,2014-12-03T09:30:00Z,30.3085,-88.1395,2.08,12.31,1111122 
DISL,ioos:station:DISL:CATA:1,2014-12-03T10:00:00Z,30.3085,-88.1395,2.063,12.2,1111122 
DISL,ioos:station:DISL:CATA:1,2014-12-03T10:30:00Z,30.3085,-88.1395,2.045,12.08,1111122 
DISL,ioos:station:DISL:CATA:1,2014-12-03T11:00:00Z,30.3085,-88.1395,2.046,11.95,1111122 
DISL,ioos:station:DISL:CATA:1,2014-12-03T11:30:00Z,30.3085,-88.1395,2.048,11.92,1111122 
DISL,ioos:station:DISL:CATA:1,2014-12-03T12:00:00Z,30.3085,-88.1395,2.049,11.84,1111122 
DISL,ioos:station:DISL:CATA:1,2014-12-03T12:30:00Z,30.3085,-88.1395,2.05,11.72,1111122 
DISL,ioos:station:DISL:CATA:1,2014-12-03T13:00:00Z,30.3085,-88.1395,2.042,11.63,1111122 
DISL,ioos:station:DISL:CATA:1,2014-12-03T13:30:00Z,30.3085,-88.1395,2.048,11.57,1111122 
DISL,ioos:station:DISL:CATA:1,2014-12-03T14:00:00Z,30.3085,-88.1395,2.051,11.55,1111122 
DISL,ioos:station:DISL:CATA:1,2014-12-03T14:30:00Z,30.3085,-88.1395,2.073,11.63,1111122 
DISL,ioos:station:DISL:CATA:1,2014-12-03T15:00:00Z,30.3085,-88.1395,2.094,11.66,1111122 
DISL,ioos:station:DISL:CATA:1,2014-12-03T15:30:00Z,30.3085,-88.1395,2.122,11.69,1111122 
DISL,ioos:station:DISL:CATA:1,2014-12-03T16:00:00Z,30.3085,-88.1395,2.148,11.32,1111122 
DISL,ioos:station:DISL:CATA:1,2014-12-03T16:30:00Z,30.3085,-88.1395,2.165,11.72,1111122 
DISL,ioos:station:DISL:CATA:1,2014-12-03T17:00:00Z,30.3085,-88.1395,2.182,11.99,1111122 
DISL,ioos:station:DISL:CATA:1,2014-12-03T17:30:00Z,30.3085,-88.1395,2.194,12.01,1111122 
DISL,ioos:station:DISL:CATA:1,2014-12-03T18:00:00Z,30.3085,-88.1395,2.213,12.1,1111122 
DISL,ioos:station:DISL:CATA:1,2014-12-03T18:30:00Z,30.3085,-88.1395,2.236,12.12,1111122 
DISL,ioos:station:DISL:CATA:1,2014-12-03T19:00:00Z,30.3085,-88.1395,2.247,11.87,1111122 
DISL,ioos:station:DISL:CATA:1,2014-12-03T19:30:00Z,30.3085,-88.1395,2.27,11.77,1111122 
DISL,ioos:station:DISL:CATA:1,2014-12-03T20:00:00Z,30.3085,-88.1395,2.296,11.76,1111122 
DISL,ioos:station:DISL:CATA:1,2014-12-03T20:30:00Z,30.3085,-88.1395,2.319,11.65,1111122 
DISL,ioos:station:DISL:CATA:1,2014-12-03T21:00:00Z,30.3085,-88.1395,2.348,11.64,1111122 
DISL,ioos:station:DISL:CATA:1,2014-12-03T21:30:00Z,30.3085,-88.1395,2.379,11.72,1111122 
DISL,ioos:station:DISL:CATA:1,2014-12-03T22:00:00Z,30.3085,-88.1395,2.408,11.41,1111122 
DISL,ioos:station:DISL:CATA:1,2014-12-03T22:30:00Z,30.3085,-88.1395,2.435,11.27,1111122 
DISL,ioos:station:DISL:CATA:1,2014-12-03T23:00:00Z,30.3085,-88.1395,2.461,11.23,1111122 
DISL,ioos:station:DISL:CATA:1,2014-12-03T23:30:00Z,30.3085,-88.1395,2.479,11.12,1111122 
DISL,ioos:station:DISL:CATA:1,2014-12-04T00:00:00Z,30.3085,-88.1395,2.495,10.99,1111122 
DISL,ioos:station:DISL:CATA:1,2014-12-04T00:30:00Z,30.3085,-88.1395,2.507,10.81,1111122 
DISL,ioos:station:DISL:CATA:1,2014-12-04T01:00:00Z,30.3085,-88.1395,2.509,10.59,1111122 
DISL,ioos:station:DISL:CATA:1,2014-12-04T01:30:00Z,30.3085,-88.1395,2.517,10.37,1111122 
DISL,ioos:station:DISL:CATA:1,2014-12-04T02:00:00Z,30.3085,-88.1395,2.526,10.16,1111122 
DISL,ioos:station:DISL:CATA:1,2014-12-04T02:30:00Z,30.3085,-88.1395,2.539,9.9,1111122 
DISL,ioos:station:DISL:CATA:1,2014-12-04T03:00:00Z,30.3085,-88.1395,2.535,9.78,1111122 
DISL,ioos:station:DISL:CATA:1,2014-12-04T03:30:00Z,30.3085,-88.1395,2.524,9.52,1111122 
DISL,ioos:station:DISL:CATA:1,2014-12-04T04:00:00Z,30.3085,-88.1395,2.516,9.12,1111122 
DISL,ioos:station:DISL:CATA:1,2014-12-04T04:30:00Z,30.3085,-88.1395,2.494,8.9,1111122 
DISL,ioos:station:DISL:CATA:1,2014-12-04T05:00:00Z,30.3085,-88.1395,2.465,8.65,1111122 
DISL,ioos:station:DISL:CATA:1,2014-12-04T05:30:00Z,30.3085,-88.1395,2.429,8.5,1111122 
DISL,ioos:station:DISL:CATA:1,2014-12-04T06:00:00Z,30.3085,-88.1395,2.393,8.24,1111122 
DISL,ioos:station:DISL:CATA:1,2014-12-04T06:30:00Z,30.3085,-88.1395,2.345,8.45,1111122 
DISL,ioos:station:DISL:CATA:1,2014-12-04T07:00:00Z,30.3085,-88.1395,2.3,9.56,1111122 
DISL,ioos:station:DISL:CATA:1,2014-12-04T07:30:00Z,30.3085,-88.1395,2.257,11.23,1111122 
DISL,ioos:station:DISL:CATA:1,2014-12-04T08:00:00Z,30.3085,-88.1395,2.22,11.81,1111122 
DISL,ioos:station:DISL:CATA:1,2014-12-04T08:30:00Z,30.3085,-88.1395,2.183,11.83,1111122 
DISL,ioos:station:DISL:CATA:1,2014-12-04T09:00:00Z,30.3085,-88.1395,2.147,11.84,1111122 
DISL,ioos:station:DISL:CATA:1,2014-12-04T09:30:00Z,30.3085,-88.1395,2.12,11.77,1111122 
DISL,ioos:station:DISL:CATA:1,2014-12-04T10:00:00Z,30.3085,-88.1395,2.096,11.63,1111122 
DISL,ioos:station:DISL:CATA:1,2014-12-04T10:30:00Z,30.3085,-88.1395,2.068,11.48,1111122 
DISL,ioos:station:DISL:CATA:1,2014-12-04T11:00:00Z,30.3085,-88.1395,2.041,11.4,1111122 
DISL,ioos:station:DISL:CATA:1,2014-12-04T11:30:00Z,30.3085,-88.1395,2.022,11.37,1111122 
DISL,ioos:station:DISL:CATA:1,2014-12-04T12:00:00Z,30.3085,-88.1395,2.006,11.4,1111122 
DISL,ioos:station:DISL:CATA:1,2014-12-04T12:30:00Z,30.3085,-88.1395,2.0,11.44,1111122 
DISL,ioos:station:DISL:CATA:1,2014-12-04T13:00:00Z,30.3085,-88.1395,2.004,11.49,1111122 
DISL,ioos:station:DISL:CATA:1,2014-12-04T13:30:00Z,30.3085,-88.1395,2.001,11.47,1111122 
DISL,ioos:station:DISL:CATA:1,2014-12-04T14:00:00Z,30.3085,-88.1395,2.018,11.67,1111122 
DISL,ioos:station:DISL:CATA:1,2014-12-04T14:30:00Z,30.3085,-88.1395,2.039,11.85,1111122 
DISL,ioos:station:DISL:CATA:1,2014-12-04T15:00:00Z,30.3085,-88.1395,2.059,11.98,1111122 
DISL,ioos:station:DISL:CATA:1,2014-12-04T15:30:00Z,30.3085,-88.1395,2.08,12.1,1111122 
DISL,ioos:station:DISL:CATA:1,2014-12-04T16:00:00Z,30.3085,-88.1395,2.113,11.66,1111122 
DISL,ioos:station:DISL:CATA:1,2014-12-04T16:30:00Z,30.3085,-88.1395,2.135,12.12,1111122 
DISL,ioos:station:DISL:CATA:1,2014-12-04T17:00:00Z,30.3085,-88.1395,2.155,12.27,1111122 
DISL,ioos:station:DISL:CATA:1,2014-12-04T17:30:00Z,30.3085,-88.1395,2.169,12.45,1111122 
DISL,ioos:station:DISL:CATA:1,2014-12-04T18:00:00Z,30.3085,-88.1395,2.181,12.41,1111122 
DISL,ioos:station:DISL:CATA:1,2014-12-04T18:30:00Z,30.3085,-88.1395,2.2,12.21,1111122 
DISL,ioos:station:DISL:CATA:1,2014-12-04T19:00:00Z,30.3085,-88.1395,2.218,12.07,1111122 
DISL,ioos:station:DISL:CATA:1,2014-12-04T19:30:00Z,30.3085,-88.1395,2.241,11.89,1111122 
DISL,ioos:station:DISL:CATA:1,2014-12-04T20:00:00Z,30.3085,-88.1395,2.258,11.84,1111122 
DISL,ioos:station:DISL:CATA:1,2014-12-04T20:30:00Z,30.3085,-88.1395,2.285,11.78,1111122 
DISL,ioos:station:DISL:CATA:1,2014-12-04T21:00:00Z,30.3085,-88.1395,2.306,11.81,1111122 
DISL,ioos:station:DISL:CATA:1,2014-12-04T21:30:00Z,30.3085,-88.1395,2.337,11.68,1111122 
DISL,ioos:station:DISL:CATA:1,2014-12-04T22:00:00Z,30.3085,-88.1395,2.364,11.53,1111122 
DISL,ioos:station:DISL:CATA:1,2014-12-04T22:30:00Z,30.3085,-88.1395,2.403,11.5,1111122 
DISL,ioos:station:DISL:CATA:1,2014-12-04T23:00:00Z,30.3085,-88.1395,2.426,11.3,1111122 
DISL,ioos:station:DISL:CATA:1,2014-12-04T23:30:00Z,30.3085,-88.1395,2.447,11.18,1111122 
DISL,ioos:station:DISL:CATA:1,2014-12-05T00:00:00Z,30.3085,-88.1395,2.474,11.12,1111122 
DISL,ioos:station:DISL:CATA:1,2014-12-05T00:30:00Z,30.3085,-88.1395,2.5,10.99,1111122 
DISL,ioos:station:DISL:CATA:1,2014-12-05T01:00:00Z,30.3085,-88.1395,2.519,10.84,1111122 
DISL,ioos:station:DISL:CATA:1,2014-12-05T01:30:00Z,30.3085,-88.1395,2.533,10.68,1111122 
DISL,ioos:station:DISL:CATA:1,2014-12-05T02:00:00Z,30.3085,-88.1395,2.545,10.55,1111122 
DISL,ioos:station:DISL:CATA:1,2014-12-05T02:30:00Z,30.3085,-88.1395,2.556,10.43,1111122 
DISL,ioos:station:DISL:CATA:1,2014-12-05T03:00:00Z,30.3085,-88.1395,2.555,10.2,1111122 
DISL,ioos:station:DISL:CATA:1,2014-12-05T03:30:00Z,30.3085,-88.1395,2.554,9.91,1111122 
DISL,ioos:station:DISL:CATA:1,2014-12-05T04:00:00Z,30.3085,-88.1395,2.555,9.81,1111122 
DISL,ioos:station:DISL:CATA:1,2014-12-05T04:30:00Z,30.3085,-88.1395,2.534,9.47,1111122 
DISL,ioos:station:DISL:CATA:1,2014-12-05T05:00:00Z,30.3085,-88.1395,2.515,9.59,1111122 
DISL,ioos:station:DISL:CATA:1,2014-12-05T05:30:00Z,30.3085,-88.1395,2.481,9.53,1111122 
DISL,ioos:station:DISL:CATA:1,2014-12-05T06:00:00Z,30.3085,-88.1395,2.457,9.37,1111122 
DISL,ioos:station:DISL:CATA:1,2014-12-05T06:30:00Z,30.3085,-88.1395,2.414,9.28,1111122 
DISL,ioos:station:DISL:CATA:1,2014-12-05T07:00:00Z,30.3085,-88.1395,2.378,9.82,1111122 
DISL,ioos:station:DISL:CATA:1,2014-12-05T07:30:00Z,30.3085,-88.1395,2.341,10.23,1111122 
DISL,ioos:station:DISL:CATA:1,2014-12-05T08:00:00Z,30.3085,-88.1395,2.289,10.26,1111122 
DISL,ioos:station:DISL:CATA:1,2014-12-05T08:30:00Z,30.3085,-88.1395,2.243,10.57,1111122 
DISL,ioos:station:DISL:CATA:1,2014-12-05T09:00:00Z,30.3085,-88.1395,2.2,10.74,1111122 
DISL,ioos:station:DISL:CATA:1,2014-12-05T09:30:00Z,30.3085,-88.1395,2.162,10.84,1111122 
DISL,ioos:station:DISL:CATA:1,2014-12-05T10:00:00Z,30.3085,-88.1395,2.131,10.8,1111122 
DISL,ioos:station:DISL:CATA:1,2014-12-05T10:30:00Z,30.3085,-88.1395,2.105,10.78,1111122 
DISL,ioos:station:DISL:CATA:1,2014-12-05T11:00:00Z,30.3085,-88.1395,2.092,10.8,1111122 
DISL,ioos:station:DISL:CATA:1,2014-12-05T11:30:00Z,30.3085,-88.1395,2.07,10.83,1111122 
DISL,ioos:station:DISL:CATA:1,2014-12-05T12:00:00Z,30.3085,-88.1395,2.085,10.81,1111122 
DISL,ioos:station:DISL:CATA:1,2014-12-05T12:30:00Z,30.3085,-88.1395,2.077,10.79,1111122 
DISL,ioos:station:DISL:CATA:1,2014-12-05T13:00:00Z,30.3085,-88.1395,2.074,10.87,1111122 
DISL,ioos:station:DISL:CATA:1,2014-12-05T13:30:00Z,30.3085,-88.1395,2.078,10.92,1111122 
DISL,ioos:station:DISL:CATA:1,2014-12-05T14:00:00Z,30.3085,-88.1395,2.086,10.99,1111122 
DISL,ioos:station:DISL:CATA:1,2014-12-05T14:30:00Z,30.3085,-88.1395,2.086,11.03,1111122 
DISL,ioos:station:DISL:CATA:1,2014-12-05T15:00:00Z,30.3085,-88.1395,2.089,11.05,1111122 
DISL,ioos:station:DISL:CATA:1,2014-12-05T15:30:00Z,30.3085,-88.1395,2.103,11.09,1111122 
DISL,ioos:station:DISL:CATA:1,2014-12-05T16:00:00Z,30.3085,-88.1395,2.119,11.1,1111122 
DISL,ioos:station:DISL:CATA:1,2014-12-05T16:30:00Z,30.3085,-88.1395,2.15,11.05,1111122 
DISL,ioos:station:DISL:CATA:1,2014-12-05T17:00:00Z,30.3085,-88.1395,2.187,10.94,1111122 
DISL,ioos:station:DISL:CATA:1,2014-12-05T17:30:00Z,30.3085,-88.1395,2.222,11.09,1111122 
DISL,ioos:station:DISL:CATA:1,2014-12-05T18:00:00Z,30.3085,-88.1395,2.24,11.32,1111122 
DISL,ioos:station:DISL:CATA:1,2014-12-05T18:30:00Z,30.3085,-88.1395,2.263,11.44,1111122 
DISL,ioos:station:DISL:CATA:1,2014-12-05T19:00:00Z,30.3085,-88.1395,2.285,11.45,1111122 
DISL,ioos:station:DISL:CATA:1,2014-12-05T19:30:00Z,30.3085,-88.1395,2.301,11.21,1111122 
DISL,ioos:station:DISL:CATA:1,2014-12-05T20:00:00Z,30.3085,-88.1395,2.321,11.19,1111122 
DISL,ioos:station:DISL:CATA:1,2014-12-05T20:30:00Z,30.3085,-88.1395,2.344,11.19,1111122 
DISL,ioos:station:DISL:CATA:1,2014-12-05T21:00:00Z,30.3085,-88.1395,2.381,10.99,1111122 
DISL,ioos:station:DISL:CATA:1,2014-12-05T21:30:00Z,30.3085,-88.1395,2.412,10.98,1111122 
DISL,ioos:station:DISL:CATA:1,2014-12-05T22:00:00Z,30.3085,-88.1395,2.447,10.88,1111122 
DISL,ioos:station:DISL:CATA:1,2014-12-05T22:30:00Z,30.3085,-88.1395,2.484,10.75,1111122 
DISL,ioos:station:DISL:CATA:1,2014-12-05T23:00:00Z,30.3085,-88.1395,2.509,10.62,1111122 
DISL,ioos:station:DISL:CATA:1,2014-12-05T23:30:00Z,30.3085,-88.1395,2.538,10.5,1111122 
DISL,ioos:station:DISL:CATA:1,2014-12-06T00:00:00Z,30.3085,-88.1395,2.558,10.31,1111122 
DISL,ioos:station:DISL:CATA:1,2014-12-06T00:30:00Z,30.3085,-88.1395,2.589,10.25,1111122 
DISL,ioos:station:DISL:CATA:1,2014-12-06T01:00:00Z,30.3085,-88.1395,2.611,10.22,1111122 
DISL,ioos:station:DISL:CATA:1,2014-12-06T01:30:00Z,30.3085,-88.1395,2.635,10.16,1111122 
DISL,ioos:station:DISL:CATA:1,2014-12-06T02:00:00Z,30.3085,-88.1395,2.651,10.06,1111122 
DISL,ioos:station:DISL:CATA:1,2014-12-06T02:30:00Z,30.3085,-88.1395,2.668,10.02,1111122 
DISL,ioos:station:DISL:CATA:1,2014-12-06T03:00:00Z,30.3085,-88.1395,2.668,9.86,1111122 
DISL,ioos:station:DISL:CATA:1,2014-12-06T03:30:00Z,30.3085,-88.1395,2.669,9.56,1111122 
DISL,ioos:station:DISL:CATA:1,2014-12-06T04:00:00Z,30.3085,-88.1395,2.654,9.42,1111122 
DISL,ioos:station:DISL:CATA:1,2014-12-06T04:30:00Z,30.3085,-88.1395,2.628,9.27,1111122 
DISL,ioos:station:DISL:CATA:1,2014-12-06T05:00:00Z,30.3085,-88.1395,2.613,9.13,1111122 
DISL,ioos:station:DISL:CATA:1,2014-12-06T05:30:00Z,30.3085,-88.1395,2.582,8.96,1111122 
DISL,ioos:station:DISL:CATA:1,2014-12-06T06:00:00Z,30.3085,-88.1395,2.545,8.72,1111122 
DISL,ioos:station:DISL:CATA:1,2014-12-06T06:30:00Z,30.3085,-88.1395,2.509,8.39,1111122 
DISL,ioos:station:DISL:CATA:1,2014-12-06T07:00:00Z,30.3085,-88.1395,2.46,9.4,1111122 
DISL,ioos:station:DISL:CATA:1,2014-12-06T07:30:00Z,30.3085,-88.1395,2.414,10.22,1111122 
DISL,ioos:station:DISL:CATA:1,2014-12-06T08:00:00Z,30.3085,-88.1395,2.36,10.05,1111122 
DISL,ioos:station:DISL:CATA:1,2014-12-06T08:30:00Z,30.3085,-88.1395,2.307,10.1,1111122 
DISL,ioos:station:DISL:CATA:1,2014-12-06T09:00:00Z,30.3085,-88.1395,2.255,10.13,1111122 
DISL,ioos:station:DISL:CATA:1,2014-12-06T09:30:00Z,30.3085,-88.1395,2.205,10.09,1111122 
DISL,ioos:station:DISL:CATA:1,2014-12-06T10:00:00Z,30.3085,-88.1395,2.17,9.99,1111122 
DISL,ioos:station:DISL:CATA:1,2014-12-06T10:30:00Z,30.3085,-88.1395,2.135,9.95,1111122 
DISL,ioos:station:DISL:CATA:1,2014-12-06T11:00:00Z,30.3085,-88.1395,2.098,9.9,1111122 
DISL,ioos:station:DISL:CATA:1,2014-12-06T11:30:00Z,30.3085,-88.1395,2.072,9.89,1111122 
DISL,ioos:station:DISL:CATA:1,2014-12-06T12:00:00Z,30.3085,-88.1395,2.04,9.9,1111122 
DISL,ioos:station:DISL:CATA:1,2014-12-06T12:30:00Z,30.3085,-88.1395,2.023,9.9,1111122 
DISL,ioos:station:DISL:CATA:1,2014-12-06T13:00:00Z,30.3085,-88.1395,2.018,9.94,1111122 
DISL,ioos:station:DISL:CATA:1,2014-12-06T13:30:00Z,30.3085,-88.1395,2.014,9.99,1111122 
DISL,ioos:station:DISL:CATA:1,2014-12-06T14:00:00Z,30.3085,-88.1395,2.006,10.04,1111122 